This demonstration page uses our WeatherBlox Daily Observations layout. Learn more.

Left ArrowRight Arrow

39.29038, -76.61219

Hourly Observations for February 12, 2021

Temp ( °F °C ) Dew Point ( °F °C ) Humidity (%) Winds ( mph kmh ) Pressure ( in mb ) Visibility ( mi km ) Precip ( " mm )
12:54 am 00:54 Cloudy 30 -1.1 20 -6.7 66 66 N 3 6 30.32 1027 10 16 N/A
1:54 am 01:54 Cloudy 30 -1.1 18 -7.8 61 61 NNE 6 9 30.32 1027 10 16 N/A
2:54 am 02:54 Cloudy 29 -1.7 16 -8.9 58 58 NNE 8 13 30.29 1026 10 16 N/A
3:54 am 03:54 Cloudy 29 -1.7 15 -9.4 56 56 NNE 10 17 30.28 1026 10 16 N/A
4:54 am 04:54 Cloudy 28 -2.2 14 -10 56 56 NNE 9 15 30.29 1026 10 16 N/A
5:54 am 05:54 Cloudy 28 -2.2 14 -10 56 56 NNE 12 19 30.30 1026 10 16 N/A
6:54 am 06:54 Cloudy 27 -2.8 14 -10 58 58 NE 9 15 30.31 1027 10 16 N/A
7:54 am 07:54 Cloudy 27 -2.8 13 -10.6 55 55 NE 10 17 30.33 1027 10 16 N/A
8:01 am 08:01 Cloudy with Light Snow 27 -2.8 12 -11.1 53 53 NE 10 17 30.34 1028 10 16 0.00 0.00
8:54 am 08:54 Cloudy 27 -2.8 13 -10.6 55 55 NNE 9 15 30.35 1028 10 16 0.00 0.00
9:54 am 09:54 Cloudy 27 -2.8 15 -9.4 61 61 NNE 8 13 30.35 1028 10 16 N/A
10:54 am 10:54 Cloudy 27 -2.8 17 -8.3 66 66 NNE 7 11 30.35 1028 10 16 N/A
11:54 am 11:54 Cloudy 28 -2.2 18 -7.8 66 66 ENE 3 6 30.34 1028 10 16 N/A
12:54 pm 12:54 Cloudy 28 -2.2 17 -8.3 63 63 NNE 5 7 30.32 1027 10 16 N/A
1:54 pm 13:54 Cloudy 29 -1.7 17 -8.3 61 61 NNE 3 6 30.30 1026 10 16 N/A
2:22 pm 14:22 Cloudy 29 -1.7 18 -7.8 63 63 N N/A 30.30 1026 10 16 N/A
2:54 pm 14:54 Cloudy 30 -1.1 18 -7.8 61 61 NE 5 7 30.28 1026 10 16 N/A
3:54 pm 15:54 Cloudy 30 -1.1 18 -7.8 61 61 NNE 3 6 30.29 1026 10 16 N/A
4:54 pm 16:54 Cloudy 30 -1.1 18 -7.8 61 61 NNE 5 7 30.29 1026 10 16 N/A
5:46 pm 17:46 Cloudy 30 -1.1 18 -7.8 61 61 NE 3 6 30.29 1026 10 16 N/A
5:54 pm 17:54 Cloudy 30 -1.1 18 -7.8 61 61 NNE 3 6 30.28 1026 10 16 N/A
6:54 pm 18:54 Cloudy 30 -1.1 18 -7.8 61 61 E 5 7 30.30 1026 10 16 N/A
7:47 pm 19:47 Cloudy 30 -1.1 19 -7.2 64 64 ENE 6 9 30.30 1026 10 16 N/A
7:50 pm 19:50 Cloudy with Light Snow 30 -1 19 -7 64 64 ENE 5 7 30.30 1026 10 16 0.00 0.00
7:54 pm 19:54 Cloudy with Light Snow 30 -1.1 19 -7.2 64 64 ENE 5 7 30.30 1026 10 16 0.00 0.00
8:03 pm 20:03 Cloudy with Light Snow 30 -1.1 19 -7.2 64 64 NNE 6 9 30.30 1026 9 14 0.00 0.00
8:28 pm 20:28 Cloudy 30 -1.1 20 -6.7 66 66 E 5 7 30.31 1026 9 14 0.00 0.00
8:54 pm 20:54 Cloudy 30 -1.1 20 -6.7 66 66 ESE 6 9 30.31 1026 10 16 0.00 0.00
9:54 pm 21:54 Cloudy 31 -0.6 19 -7.2 61 61 ENE 6 9 30.31 1026 10 16 N/A
10:54 pm 22:54 Cloudy 31 -0.6 16 -8.9 54 54 NE 6 9 30.32 1027 10 16 N/A
11:54 pm 23:54 Cloudy 31 -0.6 16 -8.9 54 54 ENE 7 11 30.30 1026 10 16 N/A

Powered by AerisWeather